Regional Weather Roundup
Issued by NWS

Home | Current Version | Previous Version | Text Only | Print | Product List | Glossary Off
Versions: 1 2 3 4 5 6 7 8 9 10 11 12 13 14 15 16 17 18 19 20 21 22 23 24 25 26 27 28 29 30 31 32 33 34 35 36 37 38 39 40 41 42 43 44 45 46 47 48 49 50

000
ASUS43 KIND 201659
RWRIN

WEATHER ROUNDUP FOR INDIANA
NATIONAL WEATHER SERVICE INDIANAPOLIS IN
1200 PM EST MON FEB 20 2017

NOTE: "FAIR" INDICATES FEW OR NO CLOUDS BELOW 12,000 FEET WITH NO
SIGNIFICANT WEATHER AND/OR OBSTRUCTIONS TO VISIBILITY.

* - STATION DOES NOT REPORT WEATHER SUCH AS PRECIPITATION OR FOG.

+ - STATION NOT QUALITY CONTROLLED BY THE NATIONAL WEATHER SERVICE.
    USE DATA WITH CAUTION...ESPECIALLY DEWPOINT AND RELATIVE
    HUMIDITY OBSERVATIONS.

INZ001>003-010>013-019-020-201800-
NORTHWEST INDIANA

CITY           SKY/WX    TMP DP  RH WIND       PRES   REMARKS
GARY /AIRPORT/ PTSUNNY   61  45  55 SE17      30.12F
KNOX *+        MOSUNNY   57  28  33 SE15G21   30.17F
LA PORTE +     MOSUNNY   60  47  63 S15G23    30.16F
MICHIGAN CITY+ MOSUNNY   59  45  58 SE9       30.15F
RENSSELAER +   SUNNY     61  48  63 SE14      30.14F

$$

LMZ046-743>745-201800-
SOUTHERN LAKE MICHIGAN

STATION/POSITION TIME  TEMP    WIND        PRES    WAVE
                       AIR SEA DIR/SP/G            HT
                 (UTC) (F)     (DEG/KT/KT) (MB)    (FT)
BURNS HARBOR     1640   60     170/ 10/ 19 1020.7F
MICHIGAN CITY    1630   57     140/ 15/ 18   N/A

$$

INZ004-005-014>016-021>024-201800-
NORTH CENTRAL INDIANA

CITY           SKY/WX    TMP DP  RH WIND       PRES   REMARKS
GOSHEN         MOSUNNY   59  42  53 SE10      30.19F
SOUTH BEND     MOSUNNY   60  47  61 SE13      30.19S
WARSAW +       CLOUDY    59  45  58 SE8       30.20S

$$

INZ006>009-017-018-025>027-201800-
NORTHEAST INDIANA

CITY           SKY/WX    TMP DP  RH WIND       PRES   REMARKS
ANGOLA *+      SUNNY     54  39  58 SE8       30.21F
FORT WAYNE     PTSUNNY   57  46  66 E10       30.22F
KENDALLVILLE + CLOUDY    55  40  56 SE9       30.21F

$$

INZ028-029-035-036-043>045-051>053-201800-
WEST CENTRAL INDIANA

CITY           SKY/WX    TMP DP  RH WIND       PRES   REMARKS
LAFAYETTE      SUNNY     60  47  61 SE13      30.15F
TERRE HAUTE    PTSUNNY   58  50  75 SE10      30.15F

$$

INZ030>032-037>040-046>048-054>057-064-065-201800-
CENTRAL INDIANA

CITY           SKY/WX    TMP DP  RH WIND       PRES   REMARKS
ANDERSON       SUNNY     57  48  72 SE10      30.22F
COLUMBUS       SUNNY     54  54 100 CALM      30.21F
FRANKFORT +    SUNNY     61  49  65 S17       30.19F
GREENWOOD *+   MOSUNNY   53  53 100 SE9       30.20F
INDIANAPOLIS   CLOUDY    55  46  71 SE9       30.19F
-EAGLE CREEK   CLOUDY    56  45  66 SE8       30.18F
KOKOMO +       MOSUNNY   58  49  72 SE12      30.21S
MT COMFORT *+  MOSUNNY   57  46  67 SE13      30.20F
SHELBYVILLE    MOSUNNY   60  46  59 SE8       30.19F
ZIONSVILLE +   MOSUNNY   54  48  80 SE6       30.19F

$$

INZ033-034-041-042-049-050-058-059-201800-
EAST CENTRAL INDIANA

CITY           SKY/WX    TMP DP  RH WIND       PRES   REMARKS
MUNCIE         MOSUNNY   59  45  59 SE10      30.21F

$$

INZ060-061-067>069-081>083-085>088-201800-
SOUTHWEST INDIANA

CITY           SKY/WX    TMP DP  RH WIND       PRES   REMARKS
EVANSVILLE     CLOUDY    64  52  64 SE6       30.16F
HUNTINGBURG *+ CLOUDY    63  53  70 SE10      30.16F

$$

INZ062-063-066-070>080-084-089>092-201800-
SOUTH CENTRAL AND SOUTHEAST INDIANA

CITY           SKY/WX    TMP DP  RH WIND       PRES   REMARKS
BLOOMINGTON    MOSUNNY   56  49  77 SE6       30.19S
MADISON *+     PTSUNNY   52  50  93 E6        30.22F
SEYMOUR +      PTSUNNY   50  50 100 CALM      30.20F FOG

$$




USA.gov is the U.S. government's official web portal to all federal, state and local government web resources and services.